Tracking 19563 objects as of 20-Mar-2019
HD Live streaming from Space Station
objects crossing your sky now

COSMOS 682

Track COSMOS 682 now!
10-day predictions
COSMOS 682 is classified as:


NORAD ID: 7440
Int'l Code: 1974-072F
Perigee: 1,459.8 km
Apogee: 1,473.0 km
Inclination: 74.0 °
Period: 115.1 minutes
Semi major axis: 7837 km
RCS: 0.6934 m2 (medium)
Launch date: September 19, 1974
Source: Commonwealth of Independent States (former USSR) (CIS)
Launch site: PLESETSK MISSILE AND SPACE COMPLEX (PKMTR)
aabbcc
Your satellite tracking list
Your tracking list is empty




NASA's NSSDC Master Catalog

Two Line Element Set (TLE):
1  7440U 74072F   19078.36966590 -.00000034 +00000-0 -11562-3 0  9991
2  7440 074.0360 195.6049 0008434 078.5577 298.8317 12.51255753032402
Source of the keplerian elements: AFSPC